Location: Holmes Observatory
(37.1039°N, 122.0513°W)
Time: 03:10:31
(UTC-07:00)

Daily predictions for brighter satellites

Satellite Brightness Start Highest point End
(mag) Time Altitude Azimuth Time Altitude Azimuth Time Altitude Azimuth
ATLAS 3B R/B 3.9 00:02:41 10° NNW 00:08:23 30° NE 00:08:23 30° NE
Cosmos 2237 Rocket 4.1 00:19:20 24° NW 00:19:20 24° NW 00:23:47 10° N
Cosmos 2333 Rocket 4.4 00:19:08 17° WNW 00:20:35 18° NW 00:24:29 10° N
Cosmos 2278 Rocket 4.3 00:21:09 10° NW 00:23:16 20° WNW 00:23:16 20° WNW
Cosmos 2369 Rocket 4.0 01:16:39 10° NNW 01:19:18 27° N 01:19:18 27° N
ATLAS 2AS CENTAUR R/B 3.8 01:27:01 42° NW 01:27:24 42° NW 01:35:00 10° NNE
Cosmos 1943 Rocket 4.0 01:27:49 10° N 01:31:05 28° NNE 01:31:05 28° NNE
ATLAS 3B R/B 4.3 01:53:05 10° NW 01:55:36 23° NW 01:55:36 23° NW
COSMOS 2455 4.0 02:11:56 10° NNW 02:17:26 38° NE 02:17:26 38° NE
USA 215 3.5 02:26:36 10° NE 02:32:31 61° NNW 02:32:31 61° NNW
Nadezhda 3 Rocket 4.5 02:38:29 55° ENE 02:38:29 55° ENE 02:43:55 10° NNE
Resurs 1-4 Rocket 3.9 02:37:23 10° NE 02:41:09 24° E 02:41:09 24° E
NPP 4.5 02:44:23 10° NNE 02:48:18 48° NNE 02:48:18 48° NNE
NOSS 3-2 (C) 3.9 02:46:22 10° NW 02:53:51 82° W 02:53:51 82° W
ADEOS Rocket 4.1 02:48:16 10° NNE 02:54:03 38° E 02:54:59 36° ESE
CENTAUR R/B 4.1 02:49:42 10° NNW 02:57:12 44° NE 03:05:08 10° ESE
CZ-2D R/B 3.3 02:54:30 10° NNE 02:58:58 34° E 02:58:58 34° E
ARIANE 5 R/B 3.8 02:55:49 10° NNE 03:00:15 34° E 03:00:15 34° E
USA 267 4.3 02:57:37 10° ESE 03:03:40 42° NE 03:09:44 10° NNW
Lacrosse 5 rocket 3.0 03:08:20 36° NE 03:08:20 36° NE 03:11:08 10° NE
Cosmos 1943 Rocket 4.4 03:11:45 10° NW 03:12:34 14° NW 03:12:34 14° NW
NOSS 3-4 (C) 4.5 03:17:45 34° NW 03:18:06 34° NW 03:23:57 10° NNE
Cosmos 2082 Rocket 4.1 03:22:55 18° SE 03:24:56 21° E 03:29:07 10° NE
Cosmos 1821 Rocket 3.8 03:18:48 10° N 03:24:57 82° E 03:25:25 76° SE
Cosmos 1818 3.7 03:26:20 72° ENE 03:26:20 72° ENE 03:31:21 10° NNE
IRS-1C 4.4 03:27:02 10° N 03:31:41 59° NW 03:31:41 59° NW
RESURS DK-1 4.5 03:34:53 20° NNW 03:34:53 20° NNW 03:36:40 10° N
Cosmos 2239 Rocket 4.3 03:27:54 10° N 03:34:04 82° W 03:34:24 78° SW
NOSS 2-2 (C) 4.4 03:36:59 46° N 03:36:59 46° N 03:40:17 10° NNE
COSMOS 2406 3.9 03:37:33 41° NW 03:37:33 41° NW 03:42:43 10° N
GEOS 3 Rocket 3.5 03:34:00 10° NE 03:39:20 86° SE 03:39:29 84° S
SL-16 R/B 2.4 03:38:59 60° S 03:40:15 87° WSW 03:46:28 10° NNW
Cosmos 1707 4.3 03:40:24 32° E 03:40:24 32° E 03:43:45 10° NNE
Cosmos 1934 Rocket 3.9 03:36:45 10° N 03:43:05 89° ENE 03:44:47 53° S
Cosmos 1535 Rocket 4.3 03:37:15 10° N 03:43:26 73° W 03:43:59 69° SW
Cosmos 1605 Rocket 4.3 03:39:33 10° N 03:45:42 64° E 03:49:06 27° SSE
Cosmos 1470 3.3 03:51:09 10° N 03:54:56 55° ENE 03:54:56 55° ENE
Cosmos-2242 3.7 03:51:02 10° N 03:55:21 54° E 03:56:30 41° SE
Cosmos 389 Rocket 3.5 03:52:46 10° N 03:56:00 46° ENE 03:56:00 46° ENE
Cosmos 1624 Rocket 4.2 03:52:21 10° NNW 03:56:46 53° WNW 03:56:46 53° WNW
Cosmos 921 Rocket 3.5 03:57:15 10° NNW 04:00:46 50° NW 04:00:46 50° NW
Cosmos 1758 Rocket 4.2 04:03:20 43° NW 04:03:20 43° NW 04:06:45 10° N
COSMOS 2455 4.3 03:58:04 10° NW 04:00:31 22° WNW 04:00:31 22° WNW
Cosmos 2098 Rocket 4.1 04:01:17 10° N 04:02:45 26° NNE 04:02:45 26° NNE
Cosmos 1953 3.7 04:03:22 10° NNW 04:05:32 28° NW 04:05:32 28° NW
USA 32 4.4 04:10:41 45° W 04:10:46 45° W 04:15:48 10° N
Cosmos 2056 Rocket 3.8 04:06:12 10° NNW 04:10:46 45° W 04:10:46 45° W
UNKNOWN OBJECT B 2.7 04:07:27 10° N 04:11:30 82° WNW 04:11:34 82° W
GPS 2-05 Rocket1 4.1 04:14:35 34° ESE 04:14:35 34° ESE 04:16:59 10° E
COBE Rocket 4.1 04:12:06 10° N 04:16:56 50° WNW 04:17:30 47° W
Resurs 1-4 Rocket 2.7 04:16:42 10° N 04:21:30 37° WNW 04:22:14 35° W
Cosmos 1733 3.3 04:17:54 10° NNW 04:21:16 58° WNW 04:21:16 58° WNW
Meteor 1-24 Rocket 4.5 04:18:10 13° SSE 04:22:49 49° E 04:28:14 10° NNE
CZ-2D R/B 3.2 04:20:14 10° N 04:24:15 69° WNW 04:24:43 61° WSW
Cosmos 1697 Rocket 3.9 04:30:08 10° N 04:35:29 44° ENE 04:40:49 10° SE
Meteor 2-15 4.4 04:32:10 28° SSW 04:35:30 66° W 04:41:37 10° N
Intercosmos 25 3.9 04:30:39 10° N 04:37:16 78° W 04:40:14 20° S
CZ-2D R/B 3.2 04:34:52 10° NNW 04:39:11 26° WNW 04:40:18 24° W
ADEOS Rocket 4.0 04:33:59 10° N 04:39:25 33° WNW 04:41:58 25° WSW
ARIANE 5 R/B 3.7 04:35:13 10° NNW 04:39:30 26° WNW 04:40:36 24° W
DNEPR-1 R/B 3.5 04:38:04 10° NW 04:42:16 63° WSW 04:46:50 10° SSE
Meteor 2-15 Rocket 4.4 04:40:52 22° SSW 04:44:57 66° W 04:51:04 10° N
Cosmos 2278 3.6 04:39:32 10° NNW 04:45:15 72° WSW 04:50:54 10° SSE
Cosmos 1452 Rocket 3.5 04:41:00 10° NNW 04:46:08 57° WSW 04:51:16 10° S
Lacrosse 5 rocket 3.6 04:44:01 13° WNW 04:46:17 18° NNW 04:49:29 10° N
USA 267 3.3 04:40:07 10° SSE 04:46:31 55° SW 04:52:55 10° NW
CENTAUR R/B 3.3 04:40:27 10° NW 04:48:04 46° WSW 04:55:59 10° S
COSMOS 2487 3.7 04:49:26 26° WNW 04:49:38 26° WNW 04:52:41 10° N
Cosmos 2061 Rocket 4.2 04:43:53 10° N 04:50:08 75° E 04:56:17 10° SSE
Cosmos 1727 Rocket 4.4 04:48:01 25° SW 04:51:01 41° WNW 04:56:50 10° N
Cosmos 2369 3.7 04:47:55 10° NNW 04:53:35 62° WSW 04:59:12 10° S
Okean 3 Rocket 4.3 04:50:54 10° S 04:55:10 53° E 04:59:29 10° NNE
Orbus 7S? 3.2 04:55:00 10° NW 04:58:00 56° NE 05:00:35 10° SE
Cosmos 1420 Rocket 4.0 04:55:32 10° NNW 05:00:49 66° WSW 05:06:02 10° S
Cosmos 2016 Rocket 4.3 04:54:38 10° N 05:00:54 70° E 05:07:12 10° SSE
Intelsat 5-3 Rocket 4.4 05:03:53 13° SSW 05:03:53 13° SSW 05:05:24 10° S
Cosmos 1656 3.5 04:58:10 10° NNW 05:03:36 74° WSW 05:09:00 10° SSE
Cosmos 1048 Rocket 4.1 05:00:46 20° SW 05:04:10 55° WNW 05:09:12 10° N
Cosmos 1833 Rocket 2.9 05:01:21 20° SW 05:05:07 55° WNW 05:10:39 10° NNE
MOS 1 Rocket 3.9 05:02:12 10° N 05:06:10 34° WNW 05:08:36 20° SW
Cosmos 2082 Rocket 2.6 05:04:48 19° SW 05:08:36 47° WNW 05:14:07 10° N
USA 161 3.5 05:09:52 15° WNW 05:09:52 15° WNW 05:10:53 10° NW
DELTA 2 R/B(2) 3.1 05:09:22 45° S 05:09:28 46° SSE 05:11:09 10° E
Landsat 4 4.1 05:06:18 12° SSW 05:09:28 40° W 05:13:01 10° NNW
Cosmos 1980 Rocket 3.2 05:04:40 10° NNW 05:10:12 51° ENE 05:15:42 10° SE
CZ-2C R/B 4.5 05:06:02 10° SSE 05:10:20 54° ENE 05:14:43 10° N
Cosmos 1076 Rocket 4.3 05:07:07 10° S 05:11:13 52° E 05:15:21 10° NNE
Meteor 2-5 Rocket 4.5 05:07:51 18° SW 05:11:25 35° WNW 05:16:42 10° N
CZ-4B R/B 3.1 05:07:15 10° N 05:11:37 73° WNW 05:16:06 10° SSW
Okean O Rocket 1.6 05:08:03 10° N 05:12:29 73° WNW 05:16:51 10° SSW
BREEZE-M DEB (TANK) 4.1 05:07:21 14° SW 05:15:01 54° SSE 05:18:30 10° ENE
IRS-1C Rocket 4.1 05:10:38 10° NNE 05:15:56 86° WNW 05:21:13 10° SSW
Tiangong 1 1.4 05:18:37 18° W 05:20:15 36° SSW 05:22:53 10° SE
CZ-4B R/B 3.1 05:15:01 10° NNE 05:20:23 83° WNW 05:25:40 10° SSW
EXPRESS MD2 2.8 05:16:32 10° NW 05:20:54 82° NE 05:23:25 10° SE
Cosmos 1459 Rocket 4.1 05:15:03 10° NNW 05:21:04 55° W 05:27:10 10° SSW
Cosmos 1802 Rocket 4.1 05:15:34 10° NNW 05:21:55 66° W 05:28:13 10° S
ADEOS II 2.1 05:18:33 10° N 05:23:45 64° WNW 05:28:55 10° SSW
SL-16 R/B 4.3 05:24:04 10° W 05:24:36 11° W 05:25:50 10° WNW
Meteor 1-31 Rocket 3.9 05:23:57 10° NNE 05:27:44 46° E 05:31:31 10° S
PAYLOAD B 4.3 05:24:28 10° N 05:29:58 61° WNW 05:35:23 10° SSW
Meteor 2-1 Rocket 4.3 05:25:11 10° NNW 05:30:44 58° W 05:36:24 10° S
Cosmos 1908 3.9 05:27:56 10° N 05:31:46 60° E 05:35:35 10° SSE
Cosmos 1408 Rocket 4.1 05:29:14 10° S 05:33:38 66° E 05:38:05 10° NNE
Cosmos 1725 Rocket 4.1 05:27:23 10° N 05:33:42 88° E 05:40:00 10° S
Delta 2 Rocket 3.6 05:31:25 12° W 05:34:08 32° SSW 05:37:11 10° SE
Cosmos 2251 Rocket 3.6 05:38:00 10° SSW 05:43:16 88° WNW 05:48:38 10° NNE
SL-08 R/B 4.5 05:37:43 10° NNW 05:43:45 63° W 05:49:42 10° S
PSLV R/B 4.1 05:39:54 10° N 05:43:59 40° WNW 05:48:00 10° SW
Cosmos 1331 Rocket 4.2 05:40:10 10° NNW 05:45:26 79° ENE 05:50:36 10° SSE
TSX-5 4.4 05:41:53 10° SSW 05:46:04 78° ESE 05:51:37 10° NNE
CZ-3 R/B 3.3 05:44:57 10° SW 05:59:33 32° S 06:04:37 10° ESE
